DECAYED

STARLINK-31624, 59532 (Decayed)

Orbit data source: Space-Track

STARLINK-31624, 59532 was a payload satellite owned by SpaceX/Seattle (US) in LEO that was launched on Wed, 17 Apr 2024 UTC via an FALCON 9 launch vehicle from the Air Force Eastern Test Range (AFETR). Payload-class satellites include a variety of spacecraft equipped with specific instruments for various scientific and technological missions. These include communications satellites like Starlink; space stations such as the ISS; scientific satellites like the Hubble; Earth observation satellites from companies like Planet Labs, Umbra, and HawkEye 360; GPS; miniature CubeSats for education and research; and military/defense satellites.

Not visible in the next 10 days
Identifier
59532, 2024-073X
Orbit
Decayed
Country
Flag of USUS
Related business
Manufacturer
SpaceX/Seattle
Mission
Decayed Commercial Communications
Bus & Motor
STARLINK V2M, Unknown motor
Mass
730 kg wet, ~700 kg dry
Launch date (UTC)
2024-04-17 (2 years ago)
Launch vehicle
FALCON 9
Launch site
Air Force Eastern Test Range (AFETR)
Object type
Payload
Rocket body
Debris
Shape & HBR
Box + 2 Pan, 17.7 m
Radar Cross Section
33.884 m², Large (>1 m²)

Expand to show TLE details & history
Last TLE update: 10 months ago

TLE from 10 months ago
0 STARLINK-31624
1 59532U 24073X   25233.74184562  .05813347  15334-0  70549-2 0  9996
2 59532  42.9823 330.7800 0016518   6.0878 354.0204 16.14829563 77226
Epoch: 2025-08-21T17:48Z
TLE epoch observation values (Epoch: 2025-08-21T17:48:15.461Z)
Latitude
0.00001°
Longitude
93.41464°
Altitude
222.532 km
Speed
7.781 km/s
True Right ascension
22h 03m 07s
True Declination
0° 00' 00"
Sunlit
Object was in full shadow at epoch
Visualization orbit readout
Latitude
Unknown
Longitude
Unknown
Altitude
Unknown
Speed
Unknown
Apparent Right ascension
Unknown
Apparent Declination
Unknown
Sunlit
N/A
Visualization observer readout
Local Sidereal Time
15:27:50
Azimuth
Unknown
Elevation
Unknown
Doppler factor
Unknown
Orbital elements
Apogee altitude
246.574 km
Perigee altitude
224.724 km
Semi-major axis
6,613.786 km
Eccentricity
0.00165
Inclination
42.9823°
RAAN
330.78°
Arg. of periapsis
6.0878°
True anomaly
354.00064°
Mean anomaly
354.0204°
Eccentric anomaly
354.01052°
Mean motion
4.03523 °/min
Orbital period
89.21 mins
BSTAR
0.0070549
Loading maneuver chart data...
Computing Atmospheric mass density...
Loading historical data...
Loading historical data...
Loading historical data...
Loading historical data...
Loading historical data...
Loading historical data...
Loading historical data...

Documentation

Showing up to 5 results
|